Погода в Карпатосе

Греция     35°35′42″N   27°09′23″E
темп.,
°C
ветер,
м/с
пор.,
м/с
влажн.,
%
обл.,
%
осадки,
мм/ч
давл.,
гПа
погр.,
м
29 ноября, пн
пн2923:00+20ю6117974 0.0 1014263
02:00+20ю81477100 0.0 1013301
05:00+21ююв71373100 0.0 1012307
08:00+21ю101775100 0.0 1012461
11:00+21ююз101673100 0.0 1012427
14:00+21юз81375100 0.0 1011446
17:00+20юз81282100 0.0 1011347
20:00+19ссз4583100 0.1 1014421
30 ноября, вт
вт3023:00+18зсз2373100 0.0 1014379
02:00+18юз797114 0.1 1013865
05:00+17зюз78730 0.0 1012804
08:00+18зюз67670 0.0 1013778
11:00+19зюз78640 0.0 10131338
14:00+17зсз556897 0.6 1012822
17:00+16зсз14166298 0.8 10141421
20:00+16зсз14166112 0.8 10151286
1 декабря, ср
ср123:00+17зсз14155316 0.0 10152144
02:00+16зсз12145124 0.0 10162214
05:00+15сз10125423 0.1 10161821
08:00+15сз895551 0.1 10171713
11:00+16сз67487 0.1 10181735
14:00+16сз78522 0.1 10171462
17:00+15сз67571 0.0 10181031
20:00+14зсз56610 0.0 1018738
2 декабря, чт
чт223:00+14зсз34623 0.0 1019624
02:00+15зсз35670 0.0 1018746
05:00+15з34670 0.0 1018596
08:00+15ююв236419 0.0 1018509
11:00+17ююз456118 0.0 10181063
14:00+17юз79601 0.1 10171329
17:00+17юз67680 0.0 1017848
20:00+17юз677419 0.1 1018713
3 декабря, пт
пт323:00+17ююз567431 0.2 1018743
02:00+17ююз677825 0.3 1018707
05:00+17юз6878100 0.6 1017671
08:00+18ююз81073100 1.3 10181059
11:00+18ююз91067100 0.0 10181244
14:00+18ю91168100 0.1 10161261
17:00+18ю91169100 0.0 10161194
20:00+18ю91270100 0.0 10161204